QFA1005 YMML-YMHB

Flight info

Callsign QFA1005
Flight time 1h 3m
Altitude 31000
Route SUNTI H169 IRSOM V33 MORGO
Aircraft B738/M-SDE2E3FGHIRWXY/LB1

Departure

Time 2026-04-21 22:11
Airport Melbourne Airport (YMML)

Arrival

Time 2026-04-21 23:14
Airport Hobart International Airport (YMHB)
Time Latitude Longitude Altitude Speed Heading
2026-04-21 21:47 -37.66828 144.84333 391 ft 0 kts 81°
2026-04-21 21:55 -37.66828 144.84331 391 ft 0 kts 81°
2026-04-21 21:57 -37.66830 144.84315 391 ft 2 kts 81°
2026-04-21 21:57 -37.66832 144.84298 391 ft 2 kts 81°
2026-04-21 21:57 -37.66834 144.84280 390 ft 2 kts 82°
2026-04-21 21:57 -37.66836 144.84263 390 ft 2 kts 83°
2026-04-21 21:58 -37.66837 144.84246 390 ft 2 kts 85°
2026-04-21 21:58 -37.66838 144.84230 390 ft 2 kts 92°
2026-04-21 21:58 -37.66836 144.84216 390 ft 1 kts 110°
2026-04-21 21:58 -37.66832 144.84206 390 ft 1 kts 142°
2026-04-21 21:59 -37.66826 144.84201 390 ft 1 kts 160°
2026-04-21 21:59 -37.66820 144.84199 390 ft 1 kts 166°
2026-04-21 21:59 -37.66815 144.84197 390 ft 1 kts 169°
2026-04-21 21:59 -37.66813 144.84197 390 ft 0 kts 169°
2026-04-21 22:03 -37.66823 144.84199 390 ft 3 kts 168°
2026-04-21 22:03 -37.66855 144.84208 389 ft 7 kts 168°
2026-04-21 22:03 -37.66913 144.84221 387 ft 10 kts 172°
2026-04-21 22:03 -37.66997 144.84231 385 ft 14 kts 173°
2026-04-21 22:04 -37.67099 144.84250 383 ft 16 kts 171°
2026-04-21 22:04 -37.67217 144.84274 381 ft 18 kts 171°
2026-04-21 22:04 -37.67351 144.84298 378 ft 20 kts 172°
2026-04-21 22:04 -37.67499 144.84326 374 ft 23 kts 171°
2026-04-21 22:05 -37.67663 144.84360 369 ft 25 kts 171°
2026-04-21 22:05 -37.67843 144.84393 362 ft 29 kts 173°
2026-04-21 22:05 -37.68055 144.84429 354 ft 31 kts 171°
2026-04-21 22:05 -37.68200 144.84457 350 ft 22 kts 171°
2026-04-21 22:06 -37.68288 144.84475 347 ft 3 kts 173°
2026-04-21 22:06 -37.68323 144.84475 346 ft 7 kts 186°
2026-04-21 22:06 -37.68378 144.84449 349 ft 10 kts 212°
2026-04-21 22:06 -37.68419 144.84412 351 ft 12 kts 216°
2026-04-21 22:07 -37.68466 144.84370 342 ft 0 kts 214°
2026-04-21 22:09 -37.68472 144.84366 342 ft 2 kts 214°
2026-04-21 22:09 -37.68496 144.84344 339 ft 6 kts 214°
2026-04-21 22:09 -37.68534 144.84300 340 ft 9 kts 234°
2026-04-21 22:09 -37.68554 144.84225 340 ft 9 kts 261°
2026-04-21 22:10 -37.68558 144.84146 342 ft 9 kts 277°
2026-04-21 22:10 -37.68526 144.84082 343 ft 9 kts 333°
2026-04-21 22:10 -37.68422 144.84058 350 ft 39 kts 353°
2026-04-21 22:10 -37.67908 144.83969 361 ft 107 kts 352°
2026-04-21 22:11 -37.66983 144.83802 424 ft 156 kts 353°
2026-04-21 22:11 -37.65882 144.83646 1208 ft 156 kts 354°
2026-04-21 22:11 -37.64785 144.83442 2043 ft 159 kts 352°
2026-04-21 22:11 -37.63799 144.83238 2503 ft 182 kts 345°
2026-04-21 22:12 -37.62432 144.82954 2779 ft 212 kts 349°
2026-04-21 22:12 -37.60913 144.82643 3129 ft 229 kts 351°
2026-04-21 22:12 -37.59323 144.82453 3695 ft 236 kts
2026-04-21 22:12 -37.57745 144.83061 4349 ft 242 kts 22°
2026-04-21 22:13 -37.56154 144.84019 4748 ft 262 kts 26°
2026-04-21 22:13 -37.54502 144.85069 5527 ft 268 kts 26°
2026-04-21 22:13 -37.52819 144.86126 6342 ft 273 kts 26°
2026-04-21 22:13 -37.51103 144.87188 7129 ft 277 kts 26°
2026-04-21 22:14 -37.49353 144.88262 7944 ft 281 kts 25°
2026-04-21 22:14 -37.47639 144.89473 8669 ft 287 kts 40°
2026-04-21 22:14 -37.46467 144.91464 9399 ft 291 kts 69°
2026-04-21 22:14 -37.46138 144.93956 10189 ft 291 kts 96°
2026-04-21 22:15 -37.46689 144.96447 10611 ft 308 kts 119°
2026-04-21 22:15 -37.48082 144.98603 10803 ft 331 kts 141°
2026-04-21 22:15 -37.50109 145.00107 11119 ft 347 kts 159°
2026-04-21 22:15 -37.52500 145.00688 11737 ft 353 kts 176°
2026-04-21 22:16 -37.54962 145.00764 12455 ft 357 kts 180°
2026-04-21 22:16 -37.57458 145.00755 13127 ft 361 kts 179°
2026-04-21 22:16 -37.59985 145.00789 13795 ft 365 kts 178°
2026-04-21 22:16 -37.62535 145.00886 14476 ft 368 kts 177°
2026-04-21 22:17 -37.65106 145.01031 15160 ft 371 kts 177°
2026-04-21 22:17 -37.67697 145.01202 15818 ft 374 kts 176°
2026-04-21 22:17 -37.70313 145.01381 16439 ft 378 kts 176°
2026-04-21 22:17 -37.72956 145.01482 17040 ft 382 kts 182°
2026-04-21 22:18 -37.75608 145.01204 17637 ft 385 kts 187°
2026-04-21 22:18 -37.78276 145.00749 18233 ft 388 kts 188°
2026-04-21 22:18 -37.80961 145.00264 18818 ft 392 kts 188°
2026-04-21 22:18 -37.83671 144.99797 19399 ft 394 kts 187°
2026-04-21 22:19 -37.86405 144.99357 19920 ft 398 kts 187°
2026-04-21 22:19 -37.89167 144.98936 20463 ft 401 kts 187°
2026-04-21 22:19 -37.91945 144.98520 20981 ft 404 kts 187°
2026-04-21 22:19 -37.94748 144.98103 21462 ft 407 kts 187°
2026-04-21 22:20 -37.97549 144.97880 21905 ft 411 kts 175°
2026-04-21 22:20 -38.00340 144.98691 22380 ft 414 kts 161°
2026-04-21 22:20 -38.03061 144.99906 22868 ft 416 kts 160°
2026-04-21 22:20 -38.05798 145.01165 23249 ft 421 kts 160°
2026-04-21 22:21 -38.08559 145.02438 23649 ft 424 kts 160°
2026-04-21 22:21 -38.11345 145.03710 24095 ft 426 kts 160°
2026-04-21 22:21 -38.14148 145.04978 24535 ft 428 kts 161°
2026-04-21 22:21 -38.16966 145.06243 24961 ft 431 kts 161°
2026-04-21 22:22 -38.19800 145.07509 25352 ft 433 kts 161°
2026-04-21 22:22 -38.22647 145.08779 25754 ft 435 kts 161°
2026-04-21 22:22 -38.25512 145.10057 26132 ft 437 kts 161°
2026-04-21 22:22 -38.28392 145.11344 26509 ft 439 kts 161°
2026-04-21 22:23 -38.31283 145.12637 26873 ft 441 kts 161°
2026-04-21 22:23 -38.34188 145.13938 27211 ft 444 kts 161°
2026-04-21 22:23 -38.37107 145.15245 27548 ft 446 kts 161°
2026-04-21 22:23 -38.40038 145.16560 27879 ft 448 kts 161°
2026-04-21 22:24 -38.42981 145.17882 28204 ft 449 kts 161°
2026-04-21 22:24 -38.45932 145.19208 28573 ft 449 kts 161°
2026-04-21 22:24 -38.48868 145.20529 29033 ft 447 kts 161°
2026-04-21 22:24 -38.51803 145.21848 29514 ft 445 kts 161°
2026-04-21 22:25 -38.54721 145.23140 29941 ft 443 kts 162°
2026-04-21 22:25 -38.57636 145.24418 30320 ft 443 kts 162°
2026-04-21 22:25 -38.60509 145.25675 30680 ft 442 kts 162°
2026-04-21 22:25 -38.63457 145.26965 31045 ft 441 kts 162°
2026-04-21 22:26 -38.66362 145.28239 31343 ft 442 kts 162°
2026-04-21 22:26 -38.72219 145.30815 31330 ft 446 kts 162°
2026-04-21 22:27 -38.78002 145.33371 31326 ft 439 kts 162°
2026-04-21 22:27 -38.83781 145.35928 31341 ft 440 kts 162°
2026-04-21 22:28 -38.89579 145.38495 31339 ft 441 kts 162°
2026-04-21 22:28 -38.95389 145.41073 31336 ft 442 kts 162°
2026-04-21 22:29 -39.01205 145.43660 31341 ft 442 kts 162°
2026-04-21 22:29 -39.07028 145.46253 31341 ft 443 kts 162°
2026-04-21 22:30 -39.12853 145.48852 31339 ft 443 kts 162°
2026-04-21 22:30 -39.18676 145.51457 31341 ft 443 kts 162°
2026-04-21 22:31 -39.24496 145.54064 31341 ft 443 kts 162°
2026-04-21 22:31 -39.30304 145.56669 31348 ft 442 kts 162°
2026-04-21 22:32 -39.36111 145.59279 31350 ft 442 kts 162°
2026-04-21 22:32 -39.41912 145.61891 31348 ft 441 kts 162°
2026-04-21 22:33 -39.47669 145.64486 31351 ft 441 kts 162°
2026-04-21 22:33 -39.53458 145.67101 31354 ft 440 kts 161°
2026-04-21 22:34 -39.59237 145.69716 31357 ft 440 kts 161°
2026-04-21 22:34 -39.65007 145.72334 31363 ft 439 kts 161°
2026-04-21 22:35 -39.70774 145.74953 31359 ft 439 kts 161°
2026-04-21 22:35 -39.76540 145.77576 31362 ft 439 kts 161°
2026-04-21 22:36 -39.85180 145.81515 31368 ft 439 kts 161°
2026-04-21 22:36 -39.90944 145.84150 31367 ft 439 kts 161°
2026-04-21 22:37 -39.96708 145.86790 31368 ft 439 kts 161°
2026-04-21 22:37 -40.02475 145.89438 31372 ft 439 kts 161°
2026-04-21 22:38 -40.08224 145.92102 31378 ft 439 kts 161°
2026-04-21 22:38 -40.13982 145.94778 31379 ft 439 kts 161°
2026-04-21 22:39 -40.19742 145.97458 31377 ft 440 kts 161°
2026-04-21 22:39 -40.25504 146.00144 31374 ft 439 kts 161°
2026-04-21 22:40 -40.31260 146.02832 31384 ft 439 kts 161°
2026-04-21 22:40 -40.37012 146.05522 31387 ft 439 kts 161°
2026-04-21 22:41 -40.42762 146.08215 31386 ft 439 kts 161°
2026-04-21 22:41 -40.48472 146.10896 31386 ft 439 kts 161°
2026-04-21 22:42 -40.54212 146.13597 31387 ft 438 kts 161°
2026-04-21 22:42 -40.59954 146.16303 31386 ft 438 kts 161°
2026-04-21 22:43 -40.65698 146.19012 31393 ft 438 kts 161°
2026-04-21 22:43 -40.71441 146.21727 31394 ft 439 kts 161°
2026-04-21 22:44 -40.77192 146.24445 31396 ft 439 kts 161°
2026-04-21 22:44 -40.82950 146.27170 31397 ft 440 kts 161°
2026-04-21 22:45 -40.88711 146.29903 31397 ft 440 kts 161°
2026-04-21 22:45 -40.94474 146.32640 31393 ft 440 kts 161°
2026-04-21 22:46 -41.00224 146.35379 31196 ft 435 kts 161°
2026-04-21 22:46 -41.03043 146.36724 30933 ft 426 kts 161°
2026-04-21 22:46 -41.05800 146.38040 30674 ft 417 kts 161°
2026-04-21 22:47 -41.08518 146.39340 30424 ft 414 kts 161°
2026-04-21 22:47 -41.11223 146.40633 30178 ft 413 kts 161°
2026-04-21 22:47 -41.13920 146.41923 29931 ft 411 kts 161°
2026-04-21 22:47 -41.16609 146.43214 29684 ft 410 kts 160°
2026-04-21 22:48 -41.19058 146.44567 29452 ft 410 kts 156°
2026-04-21 22:48 -41.21694 146.46198 29197 ft 409 kts 155°
2026-04-21 22:48 -41.24219 146.47823 28963 ft 408 kts 154°
2026-04-21 22:48 -41.26772 146.49476 28709 ft 408 kts 154°
2026-04-21 22:49 -41.29324 146.51120 28459 ft 407 kts 155°
2026-04-21 22:49 -41.31876 146.52752 28216 ft 407 kts 155°
2026-04-21 22:49 -41.34426 146.54373 27961 ft 406 kts 155°
2026-04-21 22:49 -41.36973 146.55987 27712 ft 405 kts 155°
2026-04-21 22:50 -41.39513 146.57595 27465 ft 404 kts 155°
2026-04-21 22:50 -41.42047 146.59198 27214 ft 403 kts 155°
2026-04-21 22:50 -41.44574 146.60799 26967 ft 401 kts 155°
2026-04-21 22:50 -41.47091 146.62396 26710 ft 400 kts 155°
2026-04-21 22:51 -41.49603 146.63991 26463 ft 399 kts 155°
2026-04-21 22:51 -41.52106 146.65581 26212 ft 398 kts 155°
2026-04-21 22:51 -41.54600 146.67168 25962 ft 396 kts 155°
2026-04-21 22:51 -41.57081 146.68748 25711 ft 395 kts 155°
2026-04-21 22:52 -41.59557 146.70326 25463 ft 394 kts 155°
2026-04-21 22:52 -41.62024 146.71899 25213 ft 392 kts 155°
2026-04-21 22:52 -41.64482 146.73467 24961 ft 391 kts 154°
2026-04-21 22:52 -41.66930 146.75036 24712 ft 389 kts 154°
2026-04-21 22:53 -41.69366 146.76608 24459 ft 387 kts 154°
2026-04-21 22:53 -41.71784 146.78174 24125 ft 383 kts 154°
2026-04-21 22:53 -41.74175 146.79726 23735 ft 381 kts 154°
2026-04-21 22:53 -41.76552 146.81268 23345 ft 378 kts 154°
2026-04-21 22:54 -41.78884 146.82780 22958 ft 376 kts 154°
2026-04-21 22:54 -41.81266 146.84326 22557 ft 374 kts 154°
2026-04-21 22:54 -41.83599 146.85840 22166 ft 372 kts 154°
2026-04-21 22:54 -41.85925 146.87351 21774 ft 371 kts 154°
2026-04-21 22:55 -41.88209 146.88836 21381 ft 369 kts 154°
2026-04-21 22:55 -41.90513 146.90336 20988 ft 367 kts 154°
2026-04-21 22:55 -41.92806 146.91830 20600 ft 365 kts 154°
2026-04-21 22:55 -41.95088 146.93318 20207 ft 364 kts 154°
2026-04-21 22:56 -41.97361 146.94801 19821 ft 362 kts 154°
2026-04-21 22:56 -41.99623 146.96279 19435 ft 361 kts 154°
2026-04-21 22:56 -42.01876 146.97751 19037 ft 359 kts 154°
2026-04-21 22:56 -42.04119 146.99219 18662 ft 358 kts 154°
2026-04-21 22:57 -42.06358 147.00684 18263 ft 357 kts 154°
2026-04-21 22:57 -42.08590 147.02147 17887 ft 356 kts 154°
2026-04-21 22:57 -42.10811 147.03603 17508 ft 354 kts 154°
2026-04-21 22:57 -42.13020 147.05052 17122 ft 353 kts 154°
2026-04-21 22:58 -42.14484 147.06013 16868 ft 353 kts 154°
2026-04-21 22:58 -42.16684 147.07468 16489 ft 351 kts 152°
2026-04-21 22:58 -42.18651 147.09384 16109 ft 348 kts 136°
2026-04-21 22:58 -42.20423 147.11608 15708 ft 348 kts 135°
2026-04-21 22:59 -42.22173 147.13852 15337 ft 346 kts 135°
2026-04-21 22:59 -42.23923 147.16082 14965 ft 345 kts 135°
2026-04-21 22:59 -42.25676 147.18291 14598 ft 344 kts 136°
2026-04-21 22:59 -42.27430 147.20478 14237 ft 343 kts 136°
2026-04-21 23:00 -42.29179 147.22655 13874 ft 341 kts 136°
2026-04-21 23:00 -42.30923 147.24823 13509 ft 340 kts 136°
2026-04-21 23:00 -42.32758 147.26819 13176 ft 338 kts 146°
2026-04-21 23:00 -42.34785 147.28414 12896 ft 337 kts 151°
2026-04-21 23:01 -42.36862 147.29885 12595 ft 338 kts 152°
2026-04-21 23:01 -42.38946 147.31353 12297 ft 338 kts 152°
2026-04-21 23:01 -42.41019 147.32845 11999 ft 337 kts 151°
2026-04-21 23:01 -42.43083 147.34361 11583 ft 340 kts 151°
2026-04-21 23:02 -42.45173 147.35918 11124 ft 343 kts 150°
2026-04-21 23:02 -42.46246 147.36723 10928 ft 342 kts 151°
2026-04-21 23:02 -42.48316 147.38276 10609 ft 338 kts 151°
2026-04-21 23:02 -42.50358 147.39809 10302 ft 334 kts 151°
2026-04-21 23:03 -42.52379 147.41329 10013 ft 330 kts 151°
2026-04-21 23:03 -42.54355 147.42814 9975 ft 317 kts 151°
2026-04-21 23:03 -42.56229 147.44225 9896 ft 302 kts 151°
2026-04-21 23:03 -42.58069 147.45610 9340 ft 310 kts 151°
2026-04-21 23:04 -42.59912 147.47117 8965 ft 310 kts 143°
2026-04-21 23:04 -42.61583 147.48958 8680 ft 308 kts 139°
2026-04-21 23:04 -42.63184 147.50872 8399 ft 306 kts 138°
2026-04-21 23:04 -42.64778 147.52771 8106 ft 304 kts 139°
2026-04-21 23:05 -42.66377 147.54629 7830 ft 301 kts 139°
2026-04-21 23:05 -42.67972 147.56462 7578 ft 299 kts 140°
2026-04-21 23:05 -42.69556 147.58270 7300 ft 296 kts 140°
2026-04-21 23:05 -42.71127 147.60058 7045 ft 293 kts 140°
2026-04-21 23:06 -42.72680 147.61829 6799 ft 292 kts 140°
2026-04-21 23:06 -42.74228 147.63598 6536 ft 290 kts 140°
2026-04-21 23:06 -42.75764 147.65352 6289 ft 287 kts 140°
2026-04-21 23:06 -42.77290 147.67095 6031 ft 286 kts 140°
2026-04-21 23:07 -42.78808 147.68830 5829 ft 283 kts 139°
2026-04-21 23:07 -42.80277 147.70509 5789 ft 269 kts 140°
2026-04-21 23:07 -42.81810 147.71760 5670 ft 255 kts 163°
2026-04-21 23:07 -42.83525 147.72165 5583 ft 240 kts 178°
2026-04-21 23:08 -42.85158 147.72274 5454 ft 230 kts 180°
2026-04-21 23:08 -42.86717 147.72357 5242 ft 225 kts 180°
2026-04-21 23:08 -42.88273 147.72455 4924 ft 225 kts 179°
2026-04-21 23:08 -42.89824 147.72559 4597 ft 220 kts 179°
2026-04-21 23:09 -42.91280 147.72285 4354 ft 202 kts 210°
2026-04-21 23:09 -42.92288 147.71083 3976 ft 190 kts 242°
2026-04-21 23:09 -42.92766 147.69463 3576 ft 182 kts 268°
2026-04-21 23:09 -42.92833 147.67798 3307 ft 170 kts 276°
2026-04-21 23:10 -42.92836 147.66223 2970 ft 162 kts 277°
2026-04-21 23:10 -42.92834 147.64692 2703 ft 161 kts 278°
2026-04-21 23:10 -42.92521 147.63340 2392 ft 144 kts 316°
2026-04-21 23:10 -42.91839 147.62394 2062 ft 135 kts 315°
2026-04-21 23:11 -42.91206 147.61465 1886 ft 134 kts 316°
2026-04-21 23:11 -42.90555 147.60568 1711 ft 133 kts 317°
2026-04-21 23:11 -42.89898 147.59678 1537 ft 134 kts 317°
2026-04-21 23:11 -42.89237 147.58786 1360 ft 134 kts 316°
2026-04-21 23:12 -42.88570 147.57884 1176 ft 135 kts 316°
2026-04-21 23:12 -42.87903 147.56982 999 ft 135 kts 316°
2026-04-21 23:12 -42.87240 147.56087 819 ft 132 kts 315°
2026-04-21 23:12 -42.86595 147.55214 646 ft 131 kts 315°
2026-04-21 23:13 -42.85946 147.54337 469 ft 132 kts 315°
2026-04-21 23:13 -42.85292 147.53453 303 ft 132 kts 315°
2026-04-21 23:13 -42.84646 147.52588 132 ft 133 kts 316°
2026-04-21 23:13 -42.83977 147.51693 23 ft 124 kts 313°
2026-04-21 23:14 -42.83520 147.51042 22 ft 75 kts 315°
2026-04-21 23:14 -42.83232 147.50657 21 ft 37 kts 315°
2026-04-21 23:14 -42.83076 147.50449 22 ft 26 kts 315°
2026-04-21 23:14 -42.82955 147.50275 21 ft 24 kts 303°
2026-04-21 23:15 -42.82899 147.50115 22 ft 17 kts 321°
2026-04-21 23:15 -42.82844 147.50127 22 ft 7 kts 54°
2026-04-21 23:15 -42.82853 147.50184 21 ft 7 kts 139°
2026-04-21 23:15 -42.82895 147.50211 21 ft 7 kts 154°
2026-04-21 23:16 -42.82931 147.50249 21 ft 7 kts 135°
2026-04-21 23:16 -42.82963 147.50292 22 ft 6 kts 135°
2026-04-21 23:16 -42.82996 147.50338 21 ft 7 kts 135°
2026-04-21 23:16 -42.83034 147.50390 23 ft 8 kts 135°
2026-04-21 23:17 -42.83075 147.50447 21 ft 9 kts 135°
2026-04-21 23:17 -42.83120 147.50509 21 ft 10 kts 135°
2026-04-21 23:17 -42.83168 147.50574 23 ft 10 kts 135°
2026-04-21 23:17 -42.83219 147.50644 23 ft 11 kts 136°
2026-04-21 23:18 -42.83288 147.50663 23 ft 11 kts 197°
2026-04-21 23:18 -42.83349 147.50602 22 ft 11 kts 224°
2026-04-21 23:18 -42.83412 147.50557 22 ft 10 kts 175°
2026-04-21 23:18 -42.83469 147.50611 21 ft 10 kts 135°
2026-04-21 23:19 -42.83518 147.50678 23 ft 10 kts 139°
2026-04-21 23:19 -42.83581 147.50676 21 ft 10 kts 211°
2026-04-21 23:19 -42.83594 147.50666 21 ft 0 kts 207°
2026-04-21 23:19 -42.83596 147.50666 21 ft 1 kts 204°
2026-04-21 23:20 -42.83607 147.50662 23 ft 3 kts 188°
2026-04-21 23:20 -42.83631 147.50668 21 ft 4 kts 157°
2026-04-21 23:20 -42.83661 147.50697 23 ft 6 kts 155°
2026-04-21 23:20 -42.83672 147.50698 21 ft 0 kts 184°
2026-04-21 23:21 -42.83677 147.50697 21 ft 2 kts 187°
2026-04-21 23:21 -42.83694 147.50687 21 ft 4 kts 215°
2026-04-21 23:21 -42.83706 147.50672 21 ft 1 kts 222°
2026-04-21 23:21 -42.83712 147.50665 21 ft 0 kts 223°